STARLINK-3325 (50843 NORAD) Tracking and Keplerian Element Data

This shows tracking and keplerian element data for the satellite.

Feedback or suggestion? Click here.




ElementValue
Catalog50843
NameSTARLINK-3325
Epoch Orbit375
Epoch Day22.91667824
Epoch Year2022
RAAN119.7523
Inclination53.2175
Eccentricity0.0001183
Argument of Perigee54.3149
Mean Anonmoly264.6936
Mean Motion15.75351995
Decay Rate-0.00821471
L11 50843U 22001AS 22022.91667824 -.00821471 00000+0 -58677-2 0 9995
L22 50843 53.2175 119.7523 0001183 54.3149 264.6936 15.75351995 3753

Live tracking and technical data element details for STARLINK-3325 (NORAD 50843). STARLINK-3325 can be tracked NOW for your location showing map with azimuth and elevation plus other details from your city location.

Track the satellite on the map from your city or location and see movement details for azimuth, elevation, latitude, longitude, range, height, and movement on the map or in text.







IsCatalogInMostPopularTable: catalog: 50843, numindb: 3
Update: records affected: 1



GetName: 50843 STARLINK-3325

Hit Count: updated at: Sun, 23 Jan 2022 23:38:31 GMT